TimeCDT,TemperatureF,Dew PointF,Humidity,Sea Level PressureIn,VisibilityMPH,Wind Direction,Wind SpeedMPH,Gust SpeedMPH,PrecipitationIn,Events,Conditions,WindDirDegrees,DateUTC
12:15 AM,70.7,67.5,89,30.13,10.0,SSE,6.9,-,N/A,,Clear,150,2012-10-11 05:15:00
12:35 AM,70.0,67.3,91,30.12,10.0,SE,4.6,-,N/A,,Clear,130,2012-10-11 05:35:00
12:55 AM,69.8,67.3,92,30.12,10.0,SSE,4.6,-,N/A,,Mostly Cloudy,160,2012-10-11 05:55:00
1:15 AM,69.8,67.5,92,30.11,10.0,South,6.9,-,N/A,,Overcast,170,2012-10-11 06:15:00
1:55 AM,68.9,68.0,97,30.11,10.0,South,6.9,-,N/A,,Scattered Clouds,170,2012-10-11 06:55:00
2:15 AM,69.1,68.0,96,30.11,10.0,South,9.2,-,N/A,,Scattered Clouds,170,2012-10-11 07:15:00
2:55 AM,69.3,68.0,96,30.10,10.0,SSE,4.6,-,N/A,,Mostly Cloudy,150,2012-10-11 07:55:00
3:15 AM,69.4,68.2,96,30.09,10.0,South,6.9,-,N/A,,Overcast,170,2012-10-11 08:15:00
3:35 AM,69.8,68.4,95,30.09,10.0,South,8.1,-,N/A,,Overcast,170,2012-10-11 08:35:00
3:55 AM,70.0,68.5,95,30.09,10.0,South,8.1,-,N/A,,Overcast,180,2012-10-11 08:55:00
4:15 AM,70.0,68.7,96,30.09,10.0,South,4.6,-,N/A,,Overcast,170,2012-10-11 09:15:00
4:35 AM,69.4,68.5,97,30.09,10.0,South,3.5,-,N/A,,Overcast,190,2012-10-11 09:35:00
4:55 AM,69.8,68.5,96,30.09,10.0,Calm,Calm,-,N/A,,Overcast,0,2012-10-11 09:55:00
5:15 AM,69.8,68.7,96,30.09,10.0,Calm,Calm,-,N/A,,Overcast,0,2012-10-11 10:15:00
5:35 AM,70.0,68.9,96,30.09,10.0,Calm,Calm,-,N/A,,Overcast,0,2012-10-11 10:35:00
5:55 AM,70.2,69.1,96,30.09,10.0,SSE,3.5,-,N/A,,Overcast,160,2012-10-11 10:55:00
6:15 AM,69.8,69.1,98,30.10,10.0,Calm,Calm,-,N/A,,Mostly Cloudy,0,2012-10-11 11:15:00
6:35 AM,69.6,69.1,98,30.11,10.0,South,3.5,-,N/A,,Overcast,170,2012-10-11 11:35:00
6:55 AM,70.0,69.1,97,30.11,10.0,SSE,5.8,-,N/A,,Mostly Cloudy,160,2012-10-11 11:55:00
7:15 AM,70.0,69.1,97,30.11,10.0,SSE,3.5,-,N/A,,Scattered Clouds,150,2012-10-11 12:15:00
7:35 AM,69.4,68.9,98,30.11,10.0,Calm,Calm,-,N/A,,Scattered Clouds,0,2012-10-11 12:35:00
7:55 AM,68.9,68.9,100,30.12,10.0,Calm,Calm,-,N/A,,Mostly Cloudy,0,2012-10-11 12:55:00
8:15 AM,70.0,69.8,99,30.12,10.0,SSE,3.5,-,N/A,,Overcast,150,2012-10-11 13:15:00
8:35 AM,70.7,70.0,98,30.12,10.0,SSE,3.5,-,N/A,,Mostly Cloudy,150,2012-10-11 13:35:00
8:55 AM,72.0,70.3,95,30.13,10.0,SSE,6.9,-,N/A,,Mostly Cloudy,160,2012-10-11 13:55:00
9:15 AM,72.5,70.5,93,30.14,10.0,South,11.5,-,N/A,,Mostly Cloudy,170,2012-10-11 14:15:00
9:35 AM,73.0,70.3,91,30.14,10.0,South,9.2,-,N/A,,Overcast,170,2012-10-11 14:35:00
9:55 AM,73.8,70.7,90,30.15,10.0,South,9.2,-,N/A,Rain,Rain,170,2012-10-11 14:55:00
10:15 AM,73.4,71.4,93,30.16,10.0,South,6.9,-,N/A,,Overcast,170,2012-10-11 15:15:00
10:35 AM,73.4,70.9,92,30.16,10.0,South,8.1,-,N/A,,Overcast,190,2012-10-11 15:35:00
10:55 AM,73.9,70.9,90,30.16,10.0,SSE,6.9,-,N/A,,Mostly Cloudy,160,2012-10-11 15:55:00
11:15 AM,74.1,72.7,95,30.16,10.0,SSE,8.1,-,N/A,Rain,Light Rain,160,2012-10-11 16:15:00
11:35 AM,75.7,72.0,88,30.16,10.0,South,6.9,-,N/A,,Mostly Cloudy,170,2012-10-11 16:35:00
11:55 AM,77.7,71.1,80,30.15,10.0,South,15.0,18.4,N/A,,Mostly Cloudy,180,2012-10-11 16:55:00
12:15 PM,78.4,70.7,77,30.15,10.0,SSW,13.8,-,N/A,,Scattered Clouds,200,2012-10-11 17:15:00
12:55 PM,79.5,69.4,71,30.14,10.0,South,15.0,18.4,N/A,,Scattered Clouds,180,2012-10-11 17:55:00
1:15 PM,81.3,69.8,68,30.13,10.0,South,9.2,17.3,N/A,,Scattered Clouds,190,2012-10-11 18:15:00
1:35 PM,81.1,69.8,68,30.11,10.0,South,10.4,-,N/A,,Clear,180,2012-10-11 18:35:00
1:55 PM,82.6,70.2,66,30.11,10.0,South,9.2,-,N/A,,Scattered Clouds,170,2012-10-11 18:55:00
2:15 PM,82.2,69.6,66,30.10,10.0,South,10.4,-,N/A,,Scattered Clouds,170,2012-10-11 19:15:00
2:35 PM,82.8,69.1,63,30.09,10.0,South,10.4,-,N/A,,Mostly Cloudy,170,2012-10-11 19:35:00
2:55 PM,82.9,68.0,60,30.09,10.0,South,11.5,17.3,N/A,,Mostly Cloudy,180,2012-10-11 19:55:00
3:15 PM,83.8,68.0,59,30.08,10.0,South,10.4,18.4,N/A,,Scattered Clouds,180,2012-10-11 20:15:00
3:55 PM,83.7,68.7,61,30.08,10.0,South,10.4,-,N/A,,Scattered Clouds,170,2012-10-11 20:55:00
4:15 PM,82.9,68.0,60,30.08,10.0,South,9.2,16.1,N/A,,Scattered Clouds,180,2012-10-11 21:15:00
5:15 PM,83.3,67.6,59,30.07,10.0,South,10.4,-,N/A,,Clear,180,2012-10-11 22:15:00
5:35 PM,82.4,67.1,60,30.06,10.0,South,10.4,19.6,N/A,,Clear,170,2012-10-11 22:35:00
5:55 PM,82.6,67.1,59,30.06,10.0,South,10.4,17.3,N/A,,Clear,170,2012-10-11 22:55:00
6:35 PM,79.7,70.9,74,30.07,10.0,SE,9.2,16.1,N/A,,Clear,140,2012-10-11 23:35:00
6:55 PM,76.6,71.1,83,30.08,10.0,SE,8.1,-,N/A,,Scattered Clouds,130,2012-10-11 23:55:00
7:15 PM,75.4,71.1,86,30.08,10.0,SE,6.9,-,N/A,,Clear,130,2012-10-12 00:15:00
7:35 PM,74.3,71.1,90,30.09,10.0,SE,5.8,-,N/A,,Scattered Clouds,130,2012-10-12 00:35:00
8:15 PM,74.3,71.1,90,30.10,10.0,ESE,4.6,-,N/A,,Mostly Cloudy,120,2012-10-12 01:15:00
8:35 PM,74.5,71.1,89,30.11,10.0,SE,4.6,-,N/A,,Overcast,140,2012-10-12 01:35:00
8:55 PM,74.1,71.2,91,30.11,10.0,SE,6.9,-,N/A,,Overcast,140,2012-10-12 01:55:00
9:15 PM,74.3,71.2,90,30.12,10.0,SE,6.9,-,N/A,,Mostly Cloudy,140,2012-10-12 02:15:00
9:35 PM,74.3,71.4,91,30.13,10.0,SSE,6.9,-,N/A,,Overcast,150,2012-10-12 02:35:00
9:55 PM,73.9,71.2,91,30.14,10.0,SSE,8.1,-,0.01,Rain,Rain,160,2012-10-12 02:55:00
10:15 PM,73.4,71.6,94,30.14,10.0,SSE,8.1,-,N/A,,Overcast,160,2012-10-12 03:15:00
10:55 PM,72.9,70.9,93,30.15,10.0,SSE,8.1,-,N/A,,Overcast,150,2012-10-12 03:55:00
11:15 PM,72.7,69.6,90,30.15,10.0,SSE,8.1,-,N/A,,Overcast,160,2012-10-12 04:15:00
11:35 PM,72.5,69.8,91,30.15,10.0,SSE,6.9,-,N/A,,Mostly Cloudy,150,2012-10-12 04:35:00
11:55 PM,71.6,68.9,91,30.15,10.0,SSE,8.1,-,N/A,,Mostly Cloudy,150,2012-10-12 04:55:00